Regional Weather Roundup
Issued by NWS

Home | Current Version | Previous Version | Graphics & Text | Print | Product List | Glossary On
Versions: 1 2 3 4 5 6 7 8 9 10 11 12 13 14 15 16 17 18 19 20 21 22 23 24 25 26 27 28 29 30 31 32 33 34 35 36 37 38 39 40 41 42 43 44 45 46 47 48 49 50
000
ASUS45 KABQ 020901
RWRNM
WEATHER ROUNDUP FOR NEW MEXICO
NATIONAL WEATHER SERVICE ALBUQUERQUE NM
200 AM MST MON MAR 02 2015

NOTE: "FAIR" MEANS FEW OR NO CLOUDS BELOW 12,000 FEET AGL WITH NO
       SIGNIFICANT WEATHER OR OBSTRUCTIONS TO VISION.

      THIS PRODUCT IS RELEASED AS TWO VERSIONS.  ONE VERSION NEAR
      THE TOP OF THE HOUR CONTAINING PRELIMINARY DATA FROM ALBUQUERQUE
      AND OTHER STATIONS.  A FINAL VERSION WITH ADDITIONAL DATA IS
      ISSUED ABOUT 10 MINUTES AFTER THE HOUR.

NMZ501-503-504-510>518-021000-
NORTHWEST PLATEAU/NORTHCENTRAL MOUNTAINS

CITY           SKY/WX    TMP DP  RH WIND       PRES   REMARKS
FARMINGTON     PTCLDY    37  34  89 E8        30.04S WCI  31
SANTA FE       MOCLDY    30  24  78 SE17      30.15F WCI  18
TAOS           PTCLDY    30  27  86 CALM      30.14F
ANGEL FIRE     FAIR      22  20  95 CALM      30.14F FOG

$$
NMZ402-403-502-505>509-021000-
WESTCENTRAL MOUNTAINS/SOUTHWEST MOUNTAINS

CITY           SKY/WX    TMP DP  RH WIND       PRES   REMARKS
GALLUP         CLEAR     35  32  88 NE5       30.06S WCI  31
SILVER CITY    CLOUDY    54  27  35 CALM      30.12S

$$
NMZ407-409-411-412-021000-
SOUTHERN DESERTS

CITY           SKY/WX    TMP DP  RH WIND       PRES   REMARKS
DEMING         CLOUDY    54  27  35 CALM      30.06F
HOLLOMAN AFB   MOCLDY    52  33  47 S9        30.06S
T OR C         CLOUDY    63  18  17 S22G35    30.05F

$$
NMZ519>523-021000-
CENTRAL VALLEYS/CENTRAL HIGHLANDS

CITY           SKY/WX    TMP DP  RH WIND       PRES   REMARKS
ALBUQUERQUE    CLOUDY    38  31  76 N14       30.10S WCI  30
DOUBLE EAGLE   CLOUDY    35  30  82 NE12      30.11S WCI  27
CLINES CORNERS FOG       27  25  92 E15       30.16F VSB 1/2 WCI  15
BELEN          NOT AVBL
SOCORRO        NOT AVBL

$$
NMZ524>526-539-540-021000-
SOUTHCENTRAL MOUNTAINS

CITY           SKY/WX    TMP DP  RH WIND       PRES   REMARKS
RUIDOSO        NOT AVBL

$$
NMZ527>531-021000-
NORTHEAST HIGHLANDS/NORTHEAST PLAINS

CITY           SKY/WX    TMP DP  RH WIND       PRES   REMARKS
LAS VEGAS      CLOUDY    24  22  91 S18       30.19F FOG     WCI  10
RATON          FOG       25  24  96 S10       30.18F VSB 1   WCI  15
CLAYTON        CLOUDY    23  21  92 S10       30.25F FOG     WCI  12

$$
NMZ532>537-021000-
EASTCENTRAL PLAINS

CITY           SKY/WX    TMP DP  RH WIND       PRES   REMARKS
TUCUMCARI      CLOUDY    29  27  92 E7        30.29F FOG     WCI  22
CANNON AFB     FRZ DRZL  29  29  99 E7        30.28F FOG     WCI  22
CLOVIS AIRPORT CLOUDY    28  27  93 E7        30.29F WCI  21

$$
NMZ028-029-538-021000-
SOUTHEAST PLAINS

CITY           SKY/WX    TMP DP  RH WIND       PRES   REMARKS
ROSWELL        CLOUDY    35  33  92 E7        30.28F FOG     WCI  29
CARLSBAD       CLOUDY    35  32  88 E7        30.29F FOG     WCI  29
HOBBS          FOG       28  28 100 NE8       30.31F VSB 1/2 WCI  20


$$



USA.gov is the U.S. government's official web portal to all federal, state and local government web resources and services.